Regional Weather Roundup
Issued by NWS Goodland, KS

Home | Current Version | Previous Version | Text Only | Print | Product List | Glossary Off
Versions: 1 2 3 4 5 6 7 8 9 10 11 12 13 14 15 16 17 18 19 20 21 22 23 24 25 26 27 28 29 30 31 32 33 34 35 36 37 38 39 40 41 42 43 44 45 46 47 48 49 50

000
ASUS43 KGLD 171259
RWRGLD

GOODLAND FORECAST AREA HOURLY WEATHER ROUNDUP
NATIONAL WEATHER SERVICE GOODLAND KS
600 AM MST SUN DEC 17 2017

...OFFICIAL OBSERVATIONS...

CITY           SKY/WX    TMP DP  RH WIND       PRES   REMARKS
GOODLAND KS    CLOUDY    33  31  92 N9        29.99R
HILL CITY KS   CLOUDY    32  29  88 N15       30.00R
IMPERIAL NEB   CLOUDY    33  33 100 N8        30.02R
MCCOOK NEB     CLOUDY    34  30  85 N10       30.01R
AKRON CO       FOG       29  28  96 NE7       30.00R VSB 3/4
BURLINGTON CO  CLOUDY    32  30  92 N8        29.99R
LIMON CO       CLOUDY    28  25  88 N5        29.98R
$$

...UNOFFICIAL OBSERVATIONS...

CITY           SKY/WX    TMP DP  RH WIND       PRES   REMARKS
LENORA KS        N/A     29  32 100 N7          N/A
NORTON KS      CLEAR     28  25  86 NW12      29.98  WCI  18
SHARON SPRINGS   N/A     33  30  88 N10         N/A
TRENTON NEB      N/A     35  32  89 CALM        N/A
KIT CARSON CO    N/A     32  27  81 MISG        N/A
YUMA CO        CLOUDY    30  30 100 N7        30.00R FOG
$$




USA.gov is the U.S. government's official web portal to all federal, state and local government web resources and services.